Time,TemperatureF,DewpointF,PressureIn,WindDirection,WindDirectionDegrees,WindSpeedMPH,WindSpeedGustMPH,Humidity,HourlyPrecipIn,Conditions,Clouds,dailyrainin,SoftwareType,DateUTC
2013-06-17 00:00:00,66.6,63.5,29.75,SE,135,1.6,2.2,90,0.00,,,-99.99,meteobridge,2013-06-17 04:00:00,
2013-06-17 00:01:00,66.6,63.5,29.75,SE,135,1.6,2.2,90,0.00,,,0.00,meteobridge,2013-06-17 04:01:00,
2013-06-17 00:02:00,66.6,63.5,29.75,SE,135,1.6,1.6,90,0.00,,,0.00,meteobridge,2013-06-17 04:02:00,
2013-06-17 00:04:00,66.6,63.5,29.75,SE,135,1.6,1.6,90,0.00,,,0.00,meteobridge,2013-06-17 04:04:00,
2013-06-17 00:09:00,66.6,63.5,29.75,West,270,0.7,1.6,90,0.00,,,0.00,meteobridge,2013-06-17 04:09:00,
2013-06-17 00:14:00,66.4,63.3,29.75,SE,135,2.2,2.2,90,0.00,,,0.00,meteobridge,2013-06-17 04:14:00,
2013-06-17 00:19:00,66.2,63.1,29.75,South,180,1.6,1.6,90,0.00,,,0.00,meteobridge,2013-06-17 04:19:00,
2013-06-17 00:25:00,66.0,63.3,29.75,North,0,0.7,2.2,91,0.00,,,0.00,meteobridge,2013-06-17 04:25:00,
2013-06-17 00:30:00,65.8,63.1,29.75,South,180,1.6,1.6,91,0.00,,,0.00,meteobridge,2013-06-17 04:30:00,
2013-06-17 00:35:00,65.8,63.1,29.75,SE,135,1.6,1.6,91,0.00,,,0.00,meteobridge,2013-06-17 04:35:00,
2013-06-17 00:40:00,65.7,63.3,29.75,SE,135,0.7,1.6,92,0.00,,,0.00,meteobridge,2013-06-17 04:40:00,
2013-06-17 00:45:00,65.7,63.3,29.75,SE,135,0.7,0.7,92,0.00,,,0.00,meteobridge,2013-06-17 04:45:00,
2013-06-17 00:50:00,65.7,63.3,29.75,SW,225,0.7,1.6,92,0.00,,,0.00,meteobridge,2013-06-17 04:50:00,
2013-06-17 00:56:00,65.5,63.1,29.75,West,270,1.6,4.5,92,0.00,,,0.00,meteobridge,2013-06-17 04:56:00,
2013-06-17 01:01:00,65.5,63.1,29.75,NW,315,0.0,3.1,92,0.00,,,0.00,meteobridge,2013-06-17 05:01:00,
2013-06-17 01:06:00,65.3,63.0,29.75,SE,135,0.7,1.6,92,0.00,,,0.00,meteobridge,2013-06-17 05:06:00,
2013-06-17 01:11:00,65.1,62.8,29.75,NW,315,0.7,1.6,92,0.00,,,0.00,meteobridge,2013-06-17 05:11:00,
2013-06-17 01:16:00,64.9,62.6,29.75,NW,315,0.7,2.2,92,0.00,,,0.00,meteobridge,2013-06-17 05:16:00,
2013-06-17 01:21:00,64.8,62.6,29.75,NW,315,1.6,1.6,93,0.00,,,0.00,meteobridge,2013-06-17 05:21:00,
2013-06-17 01:27:00,64.8,62.6,29.75,South,180,0.7,2.2,93,0.00,,,0.00,meteobridge,2013-06-17 05:27:00,
2013-06-17 01:32:00,64.8,63.0,29.76,NW,315,1.6,1.6,94,0.00,,,0.00,meteobridge,2013-06-17 05:32:00,
2013-06-17 01:37:00,64.8,63.0,29.75,South,180,1.6,2.2,94,0.00,,,0.00,meteobridge,2013-06-17 05:37:00,
2013-06-17 01:42:00,64.8,63.0,29.76,SE,135,2.2,3.1,94,0.00,,,0.00,meteobridge,2013-06-17 05:42:00,
2013-06-17 01:47:00,64.6,62.8,29.76,NW,315,1.6,1.6,94,0.00,,,0.00,meteobridge,2013-06-17 05:47:00,
2013-06-17 01:52:00,64.6,62.8,29.76,South,180,1.6,1.6,94,0.00,,,0.00,meteobridge,2013-06-17 05:52:00,
2013-06-17 01:58:00,64.4,62.6,29.76,SW,225,3.1,3.1,94,0.00,,,0.00,meteobridge,2013-06-17 05:58:00,
2013-06-17 02:03:00,64.4,62.6,29.76,WNW,293,2.2,2.2,94,0.00,,,0.00,meteobridge,2013-06-17 06:03:00,
2013-06-17 02:08:00,64.2,62.2,29.77,South,180,0.7,2.2,93,0.00,,,0.00,meteobridge,2013-06-17 06:08:00,
2013-06-17 02:13:00,64.2,62.2,29.77,SE,135,0.7,1.6,93,0.00,,,0.00,meteobridge,2013-06-17 06:13:00,
2013-06-17 02:18:00,64.2,62.4,29.77,NW,315,1.6,1.6,94,0.00,,,0.00,meteobridge,2013-06-17 06:18:00,
2013-06-17 02:24:00,64.2,62.4,29.77,NNE,23,1.6,1.6,94,0.00,,,0.00,meteobridge,2013-06-17 06:24:00,
2013-06-17 02:29:00,64.2,62.4,29.77,SW,225,0.7,0.7,94,0.00,,,0.00,meteobridge,2013-06-17 06:29:00,
2013-06-17 02:34:00,64.2,62.4,29.77,NE,45,0.7,0.7,94,0.00,,,0.00,meteobridge,2013-06-17 06:34:00,
2013-06-17 02:39:00,64.2,62.4,29.77,NE,45,1.6,1.6,94,0.00,,,0.00,meteobridge,2013-06-17 06:39:00,
2013-06-17 02:44:00,64.2,62.4,29.77,NW,315,0.7,0.7,94,0.00,,,0.00,meteobridge,2013-06-17 06:44:00,
2013-06-17 02:49:00,63.9,62.1,29.77,ENE,68,1.6,3.1,94,0.00,,,0.00,meteobridge,2013-06-17 06:49:00,
2013-06-17 02:55:00,63.9,62.1,29.77,NW,315,0.7,0.7,94,0.00,,,0.00,meteobridge,2013-06-17 06:55:00,
2013-06-17 03:00:00,63.7,61.9,29.78,NW,315,0.0,1.6,94,0.00,,,0.00,meteobridge,2013-06-17 07:00:00,
2013-06-17 03:05:00,63.5,61.7,29.78,South,180,0.7,0.7,94,0.00,,,0.00,meteobridge,2013-06-17 07:05:00,
2013-06-17 03:10:00,63.3,61.5,29.78,South,180,0.0,0.0,94,0.00,,,0.00,meteobridge,2013-06-17 07:10:00,
2013-06-17 03:15:00,63.1,61.3,29.78,SE,135,0.7,0.7,94,0.00,,,0.00,meteobridge,2013-06-17 07:15:00,
2013-06-17 03:20:00,63.0,61.2,29.78,North,0,0.7,1.6,94,0.00,,,0.00,meteobridge,2013-06-17 07:20:00,
2013-06-17 03:26:00,63.0,61.2,29.78,NW,315,0.7,2.2,94,0.00,,,0.00,meteobridge,2013-06-17 07:26:00,
2013-06-17 03:31:00,63.0,61.5,29.78,West,270,1.6,1.6,95,0.00,,,0.00,meteobridge,2013-06-17 07:31:00,
2013-06-17 03:36:00,63.0,61.5,29.78,NW,315,0.7,1.6,95,0.00,,,0.00,meteobridge,2013-06-17 07:36:00,
2013-06-17 03:41:00,62.8,61.3,29.78,NW,315,1.6,1.6,95,0.00,,,0.00,meteobridge,2013-06-17 07:41:00,
2013-06-17 03:46:00,62.8,61.3,29.78,NW,315,0.7,1.6,95,0.00,,,0.00,meteobridge,2013-06-17 07:46:00,
2013-06-17 03:51:00,62.8,61.7,29.79,South,180,0.7,1.6,96,0.00,,,0.00,meteobridge,2013-06-17 07:51:00,
2013-06-17 03:57:00,63.0,61.9,29.79,NW,315,0.0,0.0,96,0.00,,,0.00,meteobridge,2013-06-17 07:57:00,
2013-06-17 04:02:00,63.0,61.9,29.79,NW,315,0.7,0.7,96,0.00,,,0.00,meteobridge,2013-06-17 08:02:00,
2013-06-17 04:07:00,63.0,61.9,29.79,NW,315,0.7,0.7,96,0.00,,,0.00,meteobridge,2013-06-17 08:07:00,
2013-06-17 04:12:00,63.0,61.9,29.79,SE,135,0.0,0.7,96,0.00,,,0.00,meteobridge,2013-06-17 08:12:00,
2013-06-17 04:17:00,62.8,61.7,29.79,SE,135,0.0,0.7,96,0.00,,,0.00,meteobridge,2013-06-17 08:17:00,
2013-06-17 04:22:00,62.8,61.7,29.78,South,180,0.0,1.6,96,0.00,,,0.00,meteobridge,2013-06-17 08:22:00,
2013-06-17 04:28:00,62.8,61.7,29.79,NW,315,2.2,2.2,96,0.00,,,0.00,meteobridge,2013-06-17 08:28:00,
2013-06-17 04:33:00,62.8,61.7,29.79,SW,225,0.7,0.7,96,0.00,,,0.00,meteobridge,2013-06-17 08:33:00,
2013-06-17 04:38:00,62.6,61.5,29.79,North,0,0.7,0.7,96,0.00,,,0.00,meteobridge,2013-06-17 08:38:00,
2013-06-17 04:43:00,62.6,61.5,29.79,NW,315,1.6,1.6,96,0.00,,,0.00,meteobridge,2013-06-17 08:43:00,
2013-06-17 04:48:00,62.8,61.7,29.79,NW,315,0.0,0.7,96,0.00,,,0.00,meteobridge,2013-06-17 08:48:00,
2013-06-17 04:53:00,63.0,62.1,29.79,NW,315,0.7,0.7,97,0.00,,,0.00,meteobridge,2013-06-17 08:53:00,
2013-06-17 04:59:00,63.1,62.1,29.79,NW,315,0.7,0.7,96,0.00,,,0.00,meteobridge,2013-06-17 08:59:00,
2013-06-17 05:04:00,63.3,62.2,29.79,North,0,0.7,0.7,96,0.00,,,0.00,meteobridge,2013-06-17 09:04:00,
2013-06-17 05:09:00,63.3,62.2,29.80,NW,315,0.7,0.7,96,0.00,,,0.00,meteobridge,2013-06-17 09:09:00,
2013-06-17 05:14:00,63.3,62.2,29.80,North,0,0.0,0.0,96,0.00,,,0.00,meteobridge,2013-06-17 09:14:00,
2013-06-17 05:19:00,63.3,62.2,29.80,SE,135,0.7,0.7,96,0.00,,,0.00,meteobridge,2013-06-17 09:19:00,
2013-06-17 05:24:00,63.3,61.9,29.80,North,0,0.0,0.7,95,0.00,,,0.00,meteobridge,2013-06-17 09:24:00,
2013-06-17 05:30:00,63.3,61.9,29.80,North,0,0.7,1.6,95,0.00,,,0.00,meteobridge,2013-06-17 09:30:00,
2013-06-17 05:35:00,63.3,61.9,29.80,SE,135,0.0,0.0,95,0.00,,,0.00,meteobridge,2013-06-17 09:35:00,
2013-06-17 05:40:00,63.3,61.9,29.80,SSE,158,0.0,0.0,95,0.00,,,0.00,meteobridge,2013-06-17 09:40:00,
2013-06-17 05:45:00,63.3,61.9,29.80,NE,45,0.0,0.0,95,0.00,,,0.00,meteobridge,2013-06-17 09:45:00,
2013-06-17 05:50:00,63.3,61.5,29.81,South,180,1.6,1.6,94,0.00,,,0.00,meteobridge,2013-06-17 09:50:00,
2013-06-17 05:55:00,63.3,61.5,29.81,South,180,0.0,0.7,94,0.00,,,0.00,meteobridge,2013-06-17 09:55:00,
2013-06-17 06:01:00,63.3,61.5,29.81,NW,315,0.0,0.0,94,0.00,,,0.00,meteobridge,2013-06-17 10:01:00,
2013-06-17 06:06:00,63.3,61.5,29.81,South,180,0.7,0.7,94,0.00,,,0.00,meteobridge,2013-06-17 10:06:00,
2013-06-17 06:11:00,63.5,61.7,29.82,SE,135,0.0,0.7,94,0.00,,,0.00,meteobridge,2013-06-17 10:11:00,
2013-06-17 06:16:00,63.7,61.9,29.82,South,180,0.0,0.0,94,0.00,,,0.00,meteobridge,2013-06-17 10:16:00,
2013-06-17 06:21:00,63.9,62.1,29.82,South,180,0.0,0.0,94,0.00,,,0.00,meteobridge,2013-06-17 10:21:00,
2013-06-17 06:26:00,64.0,62.2,29.81,SW,225,0.0,1.6,94,0.00,,,0.00,meteobridge,2013-06-17 10:26:00,
2013-06-17 06:32:00,64.4,63.0,29.82,South,180,0.7,1.6,95,0.00,,,0.00,meteobridge,2013-06-17 10:32:00,
2013-06-17 06:37:00,64.6,63.1,29.82,SE,135,0.7,1.6,95,0.00,,,0.00,meteobridge,2013-06-17 10:37:00,
2013-06-17 06:42:00,64.8,63.3,29.82,East,90,0.0,0.0,95,0.00,,,0.00,meteobridge,2013-06-17 10:42:00,
2013-06-17 06:47:00,65.1,63.7,29.82,SE,135,0.0,1.6,95,0.00,,,0.00,meteobridge,2013-06-17 10:47:00,
2013-06-17 06:52:00,65.5,64.0,29.82,NE,45,1.6,1.6,95,0.00,,,0.00,meteobridge,2013-06-17 10:52:00,
2013-06-17 06:57:00,65.7,63.9,29.82,SE,135,0.7,0.7,94,0.00,,,0.00,meteobridge,2013-06-17 10:57:00,
2013-06-17 07:03:00,65.7,63.9,29.82,NW,315,0.7,0.7,94,0.00,,,0.00,meteobridge,2013-06-17 11:03:00,
2013-06-17 07:08:00,65.8,63.7,29.83,West,270,0.0,0.0,93,0.00,,,0.00,meteobridge,2013-06-17 11:08:00,
2013-06-17 07:13:00,66.0,63.9,29.83,SW,225,0.7,1.6,93,0.00,,,0.00,meteobridge,2013-06-17 11:13:00,
2013-06-17 07:18:00,66.0,63.7,29.82,North,0,0.7,0.7,92,0.00,,,0.00,meteobridge,2013-06-17 11:18:00,
2013-06-17 07:23:00,66.4,63.7,29.82,SW,225,0.0,1.6,91,0.00,,,0.00,meteobridge,2013-06-17 11:23:00,
2013-06-17 07:28:00,66.6,63.9,29.83,South,180,2.2,2.2,91,0.00,,,0.00,meteobridge,2013-06-17 11:28:00,
2013-06-17 07:34:00,66.7,63.7,29.83,South,180,2.2,2.2,90,0.00,,,0.00,meteobridge,2013-06-17 11:34:00,
2013-06-17 07:39:00,66.9,63.5,29.83,NW,315,1.6,1.6,89,0.00,,,0.00,meteobridge,2013-06-17 11:39:00,
2013-06-17 07:44:00,67.1,63.7,29.84,South,180,0.7,1.6,89,0.00,,,0.00,meteobridge,2013-06-17 11:44:00,
2013-06-17 07:49:00,67.3,63.7,29.84,South,180,1.6,2.2,88,0.00,,,0.00,meteobridge,2013-06-17 11:49:00,
2013-06-17 07:54:00,67.3,63.3,29.84,SE,135,0.7,3.1,87,0.00,,,0.00,meteobridge,2013-06-17 11:54:00,
2013-06-17 07:59:00,67.3,63.3,29.84,South,180,2.2,2.2,87,0.00,,,0.00,meteobridge,2013-06-17 11:59:00,
2013-06-17 08:05:00,67.3,63.3,29.84,South,180,0.7,0.7,87,0.00,,,0.00,meteobridge,2013-06-17 12:05:00,
2013-06-17 08:10:00,67.5,63.5,29.84,NW,315,1.6,1.6,87,0.00,,,0.00,meteobridge,2013-06-17 12:10:00,
2013-06-17 08:15:00,68.0,63.3,29.84,East,90,0.7,1.6,85,0.00,,,0.00,meteobridge,2013-06-17 12:15:00,
2013-06-17 08:20:00,68.2,63.5,29.85,SE,135,1.6,1.6,85,0.00,,,0.00,meteobridge,2013-06-17 12:20:00,
2013-06-17 08:25:00,68.2,63.5,29.84,South,180,0.7,1.6,85,0.00,,,0.00,meteobridge,2013-06-17 12:25:00,
2013-06-17 08:31:00,68.4,63.3,29.84,NW,315,2.2,2.2,84,0.00,,,0.00,meteobridge,2013-06-17 12:31:00,
2013-06-17 08:36:00,68.5,63.5,29.84,NW,315,1.6,2.2,84,0.00,,,0.00,meteobridge,2013-06-17 12:36:00,
2013-06-17 08:41:00,69.1,64.0,29.84,West,270,2.2,2.2,84,0.00,,,0.00,meteobridge,2013-06-17 12:41:00,
2013-06-17 08:46:00,69.4,64.4,29.84,North,0,0.7,1.6,84,0.00,,,0.00,meteobridge,2013-06-17 12:46:00,
2013-06-17 08:51:00,70.0,64.6,29.84,South,180,1.6,3.8,83,0.00,,,0.00,meteobridge,2013-06-17 12:51:00,
2013-06-17 08:56:00,70.3,64.2,29.84,NE,45,1.6,2.2,81,0.00,,,0.00,meteobridge,2013-06-17 12:56:00,
2013-06-17 09:02:00,70.5,64.4,29.84,SE,135,2.2,2.2,81,0.00,,,0.00,meteobridge,2013-06-17 13:02:00,
2013-06-17 09:07:00,70.7,64.6,29.84,North,0,2.2,2.2,81,0.00,,,0.00,meteobridge,2013-06-17 13:07:00,
2013-06-17 09:12:00,71.4,64.9,29.83,West,270,2.2,3.1,80,0.00,,,0.00,meteobridge,2013-06-17 13:12:00,
2013-06-17 09:17:00,71.8,64.6,29.83,South,180,1.6,3.1,78,0.00,,,0.00,meteobridge,2013-06-17 13:17:00,
2013-06-17 09:22:00,72.0,64.4,29.83,North,0,1.6,2.2,77,0.00,,,0.00,meteobridge,2013-06-17 13:22:00,
2013-06-17 09:27:00,72.3,64.8,29.83,North,0,0.7,2.2,77,0.00,,,0.00,meteobridge,2013-06-17 13:27:00,
2013-06-17 09:33:00,73.0,65.5,29.83,North,0,1.6,2.2,77,0.00,,,0.00,meteobridge,2013-06-17 13:33:00,
2013-06-17 09:38:00,73.6,65.5,29.83,South,180,2.2,2.2,76,0.00,,,0.00,meteobridge,2013-06-17 13:38:00,
2013-06-17 09:43:00,73.8,65.3,29.83,NW,315,0.7,2.2,75,0.00,,,0.00,meteobridge,2013-06-17 13:43:00,
2013-06-17 09:48:00,74.1,66.0,29.83,North,0,2.2,3.1,76,0.00,,,0.00,meteobridge,2013-06-17 13:48:00,
2013-06-17 09:53:00,74.5,66.0,29.83,North,0,3.1,3.1,75,0.00,,,0.00,meteobridge,2013-06-17 13:53:00,
2013-06-17 09:58:00,74.5,66.0,29.83,North,0,1.6,3.1,75,0.00,,,0.00,meteobridge,2013-06-17 13:58:00,
2013-06-17 10:04:00,74.5,65.7,29.83,NW,315,2.2,3.8,74,0.00,,,0.00,meteobridge,2013-06-17 14:04:00,
2013-06-17 10:09:00,74.8,66.4,29.83,North,0,1.6,3.1,75,0.00,,,0.00,meteobridge,2013-06-17 14:09:00,
2013-06-17 10:14:00,75.2,66.4,29.83,North,0,2.2,2.2,74,0.00,,,0.00,meteobridge,2013-06-17 14:14:00,
2013-06-17 10:19:00,75.9,67.1,29.83,WNW,293,2.2,2.2,74,0.00,,,0.00,meteobridge,2013-06-17 14:19:00,
2013-06-17 10:24:00,76.5,66.4,29.83,NW,315,3.1,3.1,71,0.00,,,0.00,meteobridge,2013-06-17 14:24:00,
2013-06-17 10:29:00,77.4,67.6,29.84,North,0,3.1,3.1,72,0.00,,,0.00,meteobridge,2013-06-17 14:29:00,
2013-06-17 10:35:00,78.8,66.9,29.83,North,0,1.6,3.1,67,0.00,,,0.00,meteobridge,2013-06-17 14:35:00,
2013-06-17 10:40:00,82.2,69.3,29.84,East,90,1.6,2.2,65,0.00,,,0.00,meteobridge,2013-06-17 14:40:00,
2013-06-17 10:45:00,84.4,68.9,29.84,North,0,3.1,3.1,60,0.00,,,0.00,meteobridge,2013-06-17 14:45:00,
2013-06-17 10:50:00,86.9,69.3,29.83,North,0,2.2,3.1,56,0.00,,,0.00,meteobridge,2013-06-17 14:50:00,
2013-06-17 10:55:00,88.3,69.6,29.84,West,270,3.1,3.1,54,0.00,,,0.00,meteobridge,2013-06-17 14:55:00,
2013-06-17 11:00:00,89.6,68.5,29.84,North,0,1.6,3.1,50,0.00,,,0.00,meteobridge,2013-06-17 15:00:00,
2013-06-17 11:06:00,90.7,69.4,29.83,North,0,2.2,2.2,50,0.00,,,0.00,meteobridge,2013-06-17 15:06:00,
2013-06-17 11:11:00,91.8,68.7,29.83,NW,315,2.2,3.8,47,0.00,,,0.00,meteobridge,2013-06-17 15:11:00,
2013-06-17 11:16:00,92.7,69.4,29.83,North,0,2.2,3.1,47,0.00,,,0.00,meteobridge,2013-06-17 15:16:00,
2013-06-17 11:21:00,93.7,69.8,29.83,NW,315,1.6,3.8,46,0.00,,,0.00,meteobridge,2013-06-17 15:21:00,
2013-06-17 11:26:00,95.4,70.0,29.83,NW,315,3.1,3.1,44,0.00,,,0.00,meteobridge,2013-06-17 15:26:00,
2013-06-17 11:31:00,95.0,69.6,29.83,North,0,2.2,3.1,44,0.00,,,0.00,meteobridge,2013-06-17 15:31:00,
2013-06-17 11:37:00,94.8,70.2,29.83,NW,315,1.6,3.8,45,0.00,,,0.00,meteobridge,2013-06-17 15:37:00,
2013-06-17 11:42:00,95.4,70.0,29.83,NW,315,3.1,3.1,44,0.00,,,0.00,meteobridge,2013-06-17 15:42:00,
2013-06-17 11:47:00,95.7,69.6,29.83,NW,315,3.1,3.1,43,0.00,,,0.00,meteobridge,2013-06-17 15:47:00,
2013-06-17 11:52:00,95.9,69.8,29.83,East,90,2.2,2.2,43,0.00,,,0.00,meteobridge,2013-06-17 15:52:00,
2013-06-17 11:57:00,95.0,68.9,29.83,SE,135,3.8,4.5,43,0.00,,,0.00,meteobridge,2013-06-17 15:57:00,
2013-06-17 12:02:00,93.4,68.2,29.83,North,0,2.2,3.1,44,0.00,,,0.00,meteobridge,2013-06-17 16:02:00,
2013-06-17 12:08:00,93.2,68.7,29.83,South,180,3.8,3.8,45,0.00,,,0.00,meteobridge,2013-06-17 16:08:00,
2013-06-17 12:13:00,92.8,69.6,29.83,South,180,5.4,5.4,47,0.00,,,0.00,meteobridge,2013-06-17 16:13:00,
2013-06-17 12:18:00,92.8,69.6,29.83,West,270,3.1,5.4,47,0.00,,,0.00,meteobridge,2013-06-17 16:18:00,
2013-06-17 12:23:00,92.8,69.6,29.82,NW,315,2.2,3.8,47,0.00,,,0.00,meteobridge,2013-06-17 16:23:00,
2013-06-17 12:28:00,93.0,69.3,29.82,South,180,3.1,3.1,46,0.00,,,0.00,meteobridge,2013-06-17 16:28:00,
2013-06-17 12:33:00,92.7,68.9,29.83,SW,225,3.8,3.8,46,0.00,,,0.00,meteobridge,2013-06-17 16:33:00,
2013-06-17 12:39:00,92.5,69.3,29.82,South,180,2.2,3.1,47,0.00,,,0.00,meteobridge,2013-06-17 16:39:00,
2013-06-17 12:44:00,91.8,68.7,29.82,South,180,4.5,4.5,47,0.00,,,0.00,meteobridge,2013-06-17 16:44:00,
2013-06-17 12:49:00,90.0,66.4,29.82,SE,135,3.1,4.5,46,0.00,,,0.00,meteobridge,2013-06-17 16:49:00,
2013-06-17 12:54:00,88.2,66.6,29.83,ESE,113,4.5,5.4,49,0.00,,,0.00,meteobridge,2013-06-17 16:54:00,
2013-06-17 12:59:00,87.6,68.4,29.82,SE,135,3.1,3.8,53,0.00,,,0.00,meteobridge,2013-06-17 16:59:00,
2013-06-17 13:04:00,87.4,68.2,29.82,SE,135,6.0,6.0,53,0.00,,,0.00,meteobridge,2013-06-17 17:04:00,
2013-06-17 13:10:00,86.9,67.1,29.82,North,0,2.2,6.0,52,0.00,,,0.00,meteobridge,2013-06-17 17:10:00,
2013-06-17 13:15:00,86.9,67.6,29.82,NNW,338,2.2,3.1,53,0.00,,,0.00,meteobridge,2013-06-17 17:15:00,
2013-06-17 13:20:00,86.7,66.9,29.82,SE,135,5.4,5.4,52,0.00,,,0.00,meteobridge,2013-06-17 17:20:00,
2013-06-17 13:25:00,86.4,67.8,29.82,SE,135,3.8,3.8,54,0.00,,,0.00,meteobridge,2013-06-17 17:25:00,
2013-06-17 13:30:00,86.2,68.2,29.82,SE,135,3.1,3.1,55,0.00,,,0.00,meteobridge,2013-06-17 17:30:00,
2013-06-17 13:35:00,86.5,68.4,29.82,WNW,293,0.7,3.8,55,0.00,,,0.00,meteobridge,2013-06-17 17:35:00,
2013-06-17 13:41:00,86.7,68.0,29.82,North,0,3.1,3.1,54,0.00,,,0.00,meteobridge,2013-06-17 17:41:00,
2013-06-17 13:46:00,85.8,68.9,29.82,South,180,3.8,4.5,57,0.00,,,0.00,meteobridge,2013-06-17 17:46:00,
2013-06-17 13:51:00,85.1,67.6,29.82,West,270,2.2,5.4,56,0.00,,,0.00,meteobridge,2013-06-17 17:51:00,
2013-06-17 13:56:00,84.6,66.6,29.82,South,180,4.5,7.6,55,0.00,,,0.00,meteobridge,2013-06-17 17:56:00,
2013-06-17 14:01:00,84.2,66.7,29.83,South,180,2.2,7.6,56,0.00,,,0.00,meteobridge,2013-06-17 18:01:00,
2013-06-17 14:07:00,84.0,68.2,29.82,SSE,158,4.5,4.5,59,0.00,,,0.00,meteobridge,2013-06-17 18:07:00,
2013-06-17 14:12:00,84.0,67.6,29.82,South,180,2.2,3.8,58,0.00,,,0.00,meteobridge,2013-06-17 18:12:00,
2013-06-17 14:17:00,83.7,66.4,29.82,East,90,2.2,6.0,56,0.00,,,0.00,meteobridge,2013-06-17 18:17:00,
2013-06-17 14:22:00,83.1,66.7,29.82,NE,45,2.2,4.5,58,0.00,,,0.00,meteobridge,2013-06-17 18:22:00,
2013-06-17 14:27:00,83.3,67.5,29.82,North,0,5.4,5.4,59,0.00,,,0.00,meteobridge,2013-06-17 18:27:00,
2013-06-17 14:32:00,83.1,67.3,29.82,West,270,2.2,3.1,59,0.00,,,0.00,meteobridge,2013-06-17 18:32:00,
2013-06-17 14:38:00,82.9,66.6,29.82,South,180,3.8,3.8,58,0.00,,,0.00,meteobridge,2013-06-17 18:38:00,
2013-06-17 14:43:00,82.8,66.6,29.82,NNE,23,3.1,6.9,58,0.00,,,0.00,meteobridge,2013-06-17 18:43:00,
2013-06-17 14:48:00,82.2,66.9,29.82,SE,135,4.5,6.9,60,0.00,,,0.00,meteobridge,2013-06-17 18:48:00,
2013-06-17 14:53:00,82.0,67.6,29.82,SW,225,6.0,6.0,62,0.00,,,0.00,meteobridge,2013-06-17 18:53:00,
2013-06-17 14:58:00,82.0,67.6,29.81,East,90,1.6,2.2,62,0.00,,,0.00,meteobridge,2013-06-17 18:58:00,
2013-06-17 15:03:00,82.2,67.5,29.81,SE,135,3.8,3.8,61,0.00,,,0.00,meteobridge,2013-06-17 19:03:00,
2013-06-17 15:09:00,81.9,67.1,29.81,SSE,158,4.5,4.5,61,0.00,,,0.00,meteobridge,2013-06-17 19:09:00,
2013-06-17 15:14:00,81.5,67.3,29.81,NE,45,8.3,8.3,62,0.00,,,0.00,meteobridge,2013-06-17 19:14:00,
2013-06-17 15:19:00,81.1,66.9,29.81,SE,135,3.1,3.1,62,0.00,,,0.00,meteobridge,2013-06-17 19:19:00,
2013-06-17 15:24:00,81.1,66.9,29.80,NW,315,2.2,2.2,62,0.00,,,0.00,meteobridge,2013-06-17 19:24:00,
2013-06-17 15:29:00,81.3,67.5,29.81,South,180,2.2,3.1,63,0.00,,,0.00,meteobridge,2013-06-17 19:29:00,
2013-06-17 15:34:00,81.3,67.1,29.81,North,0,3.1,3.1,62,0.00,,,0.00,meteobridge,2013-06-17 19:34:00,
2013-06-17 15:40:00,81.3,67.5,29.80,SE,135,4.5,4.5,63,0.00,,,0.00,meteobridge,2013-06-17 19:40:00,
2013-06-17 15:45:00,81.1,66.9,29.81,SW,225,3.1,3.8,62,0.00,,,0.00,meteobridge,2013-06-17 19:45:00,
2013-06-17 15:50:00,80.8,66.6,29.80,SW,225,4.5,4.5,62,0.00,,,0.00,meteobridge,2013-06-17 19:50:00,
2013-06-17 15:55:00,80.6,66.9,29.80,SE,135,4.5,4.5,63,0.00,,,0.00,meteobridge,2013-06-17 19:55:00,
2013-06-17 16:00:00,80.2,66.6,29.80,West,270,1.6,3.1,63,0.00,,,0.00,meteobridge,2013-06-17 20:00:00,
2013-06-17 16:05:00,80.6,66.9,29.80,East,90,2.2,3.1,63,0.00,,,0.00,meteobridge,2013-06-17 20:05:00,
2013-06-17 16:11:00,80.6,66.9,29.80,SE,135,3.1,3.1,63,0.00,,,0.00,meteobridge,2013-06-17 20:11:00,
2013-06-17 16:16:00,80.1,66.7,29.80,NW,315,3.1,4.5,64,0.00,,,0.00,meteobridge,2013-06-17 20:16:00,
2013-06-17 16:21:00,79.3,66.0,29.80,SE,135,2.2,3.1,64,0.00,,,0.00,meteobridge,2013-06-17 20:21:00,
2013-06-17 16:26:00,79.9,67.1,29.80,North,0,3.1,3.8,65,0.00,,,0.00,meteobridge,2013-06-17 20:26:00,
2013-06-17 16:31:00,80.1,66.7,29.79,North,0,2.2,4.5,64,0.00,,,0.00,meteobridge,2013-06-17 20:31:00,
2013-06-17 16:36:00,80.1,66.7,29.79,SE,135,3.1,3.1,64,0.00,,,0.00,meteobridge,2013-06-17 20:36:00,
2013-06-17 16:42:00,81.0,66.7,29.80,South,180,2.2,2.2,62,0.00,,,0.00,meteobridge,2013-06-17 20:42:00,
2013-06-17 16:47:00,81.1,66.9,29.80,SE,135,3.1,3.8,62,0.00,,,0.00,meteobridge,2013-06-17 20:47:00,
2013-06-17 16:52:00,81.9,67.6,29.80,SE,135,0.7,1.6,62,0.00,,,0.00,meteobridge,2013-06-17 20:52:00,
2013-06-17 16:57:00,82.9,67.1,29.80,SE,135,3.1,3.1,59,0.00,,,0.00,meteobridge,2013-06-17 20:57:00,
2013-06-17 17:02:00,82.4,66.2,29.79,SE,135,2.2,3.8,58,0.00,,,0.00,meteobridge,2013-06-17 21:02:00,
2013-06-17 17:07:00,81.5,66.2,29.79,SE,135,2.2,3.1,60,0.00,,,0.00,meteobridge,2013-06-17 21:07:00,
2013-06-17 17:13:00,80.6,64.9,29.79,North,0,4.5,4.5,59,0.00,,,0.00,meteobridge,2013-06-17 21:13:00,
2013-06-17 17:18:00,79.7,64.6,29.79,SE,135,3.1,3.8,60,0.00,,,0.00,meteobridge,2013-06-17 21:18:00,
2013-06-17 17:23:00,79.0,64.8,29.79,South,180,3.1,3.1,62,0.00,,,0.00,meteobridge,2013-06-17 21:23:00,
2013-06-17 17:28:00,78.8,64.8,29.78,SE,135,3.1,3.1,62,0.00,,,0.00,meteobridge,2013-06-17 21:28:00,
2013-06-17 17:33:00,78.6,64.9,29.78,SE,135,3.8,3.8,63,0.00,,,0.00,meteobridge,2013-06-17 21:33:00,
2013-06-17 17:38:00,78.4,64.8,29.78,NNW,338,3.1,4.5,63,0.00,,,0.00,meteobridge,2013-06-17 21:38:00,
2013-06-17 17:44:00,78.4,65.3,29.79,North,0,4.5,4.5,64,0.00,,,0.00,meteobridge,2013-06-17 21:44:00,
2013-06-17 17:49:00,78.1,64.9,29.78,SE,135,3.8,3.8,64,0.00,,,0.00,meteobridge,2013-06-17 21:49:00,
2013-06-17 17:54:00,77.7,64.9,29.79,South,180,5.4,5.4,65,0.00,,,0.00,meteobridge,2013-06-17 21:54:00,
2013-06-17 17:59:00,77.4,65.1,29.78,South,180,3.1,3.1,66,0.00,,,0.00,meteobridge,2013-06-17 21:59:00,
2013-06-17 18:04:00,76.8,65.5,29.78,NW,315,3.8,4.5,68,0.00,,,0.00,meteobridge,2013-06-17 22:04:00,
2013-06-17 18:09:00,76.1,65.7,29.79,North,0,1.6,3.8,70,0.00,,,0.00,meteobridge,2013-06-17 22:09:00,
2013-06-17 18:15:00,75.6,65.5,29.79,SE,135,2.2,3.8,71,0.00,,,0.00,meteobridge,2013-06-17 22:15:00,
2013-06-17 18:20:00,75.0,65.8,29.80,South,180,4.5,4.5,73,0.00,,,0.00,meteobridge,2013-06-17 22:20:00,
2013-06-17 18:25:00,74.5,65.7,29.80,NE,45,2.2,2.2,74,0.00,,,0.00,meteobridge,2013-06-17 22:25:00,
2013-06-17 18:30:00,74.1,65.7,29.80,South,180,1.6,2.2,75,0.00,,,0.00,meteobridge,2013-06-17 22:30:00,
2013-06-17 18:35:00,73.9,65.5,29.81,NW,315,0.7,3.8,75,0.00,,,0.00,meteobridge,2013-06-17 22:35:00,
2013-06-17 18:40:00,73.4,64.9,29.82,SE,135,1.6,3.1,75,0.00,,,0.00,meteobridge,2013-06-17 22:40:00,
2013-06-17 18:46:00,72.9,64.4,29.82,SE,135,3.1,6.0,75,0.00,,,0.00,meteobridge,2013-06-17 22:46:00,
2013-06-17 18:51:00,72.5,64.6,29.82,West,270,0.7,3.1,76,0.00,,,0.00,meteobridge,2013-06-17 22:51:00,
2013-06-17 18:56:00,72.0,64.4,29.83,SE,135,0.7,1.6,77,0.00,,,0.00,meteobridge,2013-06-17 22:56:00,
2013-06-17 19:01:00,71.4,64.6,29.83,SE,135,1.6,2.2,79,0.00,,,0.00,meteobridge,2013-06-17 23:01:00,
2013-06-17 19:06:00,70.9,64.4,29.83,South,180,1.6,2.2,80,0.00,,,0.00,meteobridge,2013-06-17 23:06:00,
2013-06-17 19:11:00,70.5,64.4,29.83,South,180,3.1,3.1,81,0.00,,,0.00,meteobridge,2013-06-17 23:11:00,
2013-06-17 19:17:00,70.2,64.4,29.84,SE,135,0.7,1.6,82,0.00,,,0.00,meteobridge,2013-06-17 23:17:00,
2013-06-17 19:22:00,70.0,64.6,29.86,NW,315,1.6,2.2,83,0.00,,,0.00,meteobridge,2013-06-17 23:22:00,
2013-06-17 19:27:00,70.0,64.6,29.86,NW,315,3.1,3.1,83,0.00,,,0.00,meteobridge,2013-06-17 23:27:00,
2013-06-17 19:32:00,70.0,64.9,29.87,NW,315,3.1,3.1,84,0.00,,,0.00,meteobridge,2013-06-17 23:32:00,
2013-06-17 19:37:00,69.6,64.9,29.86,NW,315,3.1,3.1,85,0.00,,,0.00,meteobridge,2013-06-17 23:37:00,
2013-06-17 19:42:00,68.9,63.5,29.87,South,180,3.1,3.1,83,0.00,,,0.00,meteobridge,2013-06-17 23:42:00,
2013-06-17 19:48:00,68.5,61.7,29.87,NW,315,2.2,6.9,79,0.00,,,0.00,meteobridge,2013-06-17 23:48:00,
2013-06-17 19:53:00,68.5,61.3,29.87,NW,315,3.1,3.8,78,0.00,,,0.00,meteobridge,2013-06-17 23:53:00,
2013-06-17 19:58:00,68.5,61.0,29.88,West,270,3.1,3.1,77,0.00,,,0.00,meteobridge,2013-06-17 23:58:00,
2013-06-17 20:03:00,68.5,60.6,29.88,South,180,3.1,3.1,76,0.00,,,0.00,meteobridge,2013-06-18 00:03:00,
2013-06-17 20:08:00,68.5,61.0,29.88,West,270,1.6,2.2,77,0.00,,,0.00,meteobridge,2013-06-18 00:08:00,
2013-06-17 20:13:00,68.4,60.8,29.88,South,180,0.7,3.1,77,0.00,,,0.00,meteobridge,2013-06-18 00:13:00,
2013-06-17 20:19:00,68.2,60.6,29.88,NW,315,0.7,2.2,77,0.00,,,0.00,meteobridge,2013-06-18 00:19:00,
2013-06-17 20:24:00,68.0,60.4,29.88,NW,315,1.6,1.6,77,0.00,,,0.00,meteobridge,2013-06-18 00:24:00,
2013-06-17 20:29:00,67.8,60.6,29.89,West,270,2.2,2.2,78,0.00,,,0.00,meteobridge,2013-06-18 00:29:00,
2013-06-17 20:34:00,67.6,60.6,29.88,North,0,2.2,2.2,78,0.00,,,0.00,meteobridge,2013-06-18 00:34:00,
2013-06-17 20:39:00,67.5,60.8,29.88,NW,315,1.6,2.2,79,0.00,,,0.00,meteobridge,2013-06-18 00:39:00,
2013-06-17 20:45:00,67.5,61.2,29.88,SW,225,0.7,3.8,80,0.00,,,0.00,meteobridge,2013-06-18 00:45:00,
2013-06-17 20:50:00,67.3,61.0,29.88,North,0,1.6,1.6,80,0.00,,,0.00,meteobridge,2013-06-18 00:50:00,
2013-06-17 20:55:00,66.9,61.0,29.87,North,0,0.7,1.6,81,0.00,,,0.00,meteobridge,2013-06-18 00:55:00,
2013-06-17 21:00:00,66.7,61.0,29.87,South,180,0.7,1.6,82,0.00,,,0.00,meteobridge,2013-06-18 01:00:00,
2013-06-17 21:05:00,66.6,61.0,29.87,North,0,0.0,0.0,82,0.00,,,0.00,meteobridge,2013-06-18 01:05:00,
2013-06-17 21:10:00,66.6,61.2,29.88,South,180,0.7,2.2,83,0.00,,,0.00,meteobridge,2013-06-18 01:10:00,
2013-06-17 21:16:00,66.4,61.3,29.88,North,0,0.0,0.0,84,0.00,,,0.00,meteobridge,2013-06-18 01:16:00,
2013-06-17 21:21:00,66.2,61.2,29.88,NW,315,0.0,1.6,84,0.00,,,0.00,meteobridge,2013-06-18 01:21:00,
2013-06-17 21:26:00,66.2,61.2,29.88,South,180,0.7,0.7,84,0.00,,,0.00,meteobridge,2013-06-18 01:26:00,
2013-06-17 21:31:00,66.2,61.2,29.88,South,180,0.0,0.0,84,0.00,,,0.00,meteobridge,2013-06-18 01:31:00,
2013-06-17 21:36:00,66.0,61.3,29.88,South,180,1.6,1.6,85,0.00,,,0.00,meteobridge,2013-06-18 01:36:00,
2013-06-17 21:41:00,66.0,61.7,29.87,South,180,1.6,1.6,86,0.00,,,0.00,meteobridge,2013-06-18 01:41:00,
2013-06-17 21:47:00,66.0,61.7,29.87,South,180,1.6,1.6,86,0.00,,,0.00,meteobridge,2013-06-18 01:47:00,
2013-06-17 21:52:00,66.0,62.1,29.87,South,180,0.7,1.6,87,0.00,,,0.00,meteobridge,2013-06-18 01:52:00,
2013-06-17 21:57:00,65.8,61.9,29.86,South,180,1.6,1.6,87,0.00,,,0.00,meteobridge,2013-06-18 01:57:00,
2013-06-17 22:02:00,65.8,61.9,29.87,NW,315,0.7,0.7,87,0.00,,,0.00,meteobridge,2013-06-18 02:02:00,
2013-06-17 22:07:00,65.8,61.9,29.88,SE,135,0.0,0.7,87,0.00,,,0.00,meteobridge,2013-06-18 02:07:00,
2013-06-17 22:12:00,65.8,61.9,29.87,South,180,1.6,1.6,87,0.00,,,0.00,meteobridge,2013-06-18 02:12:00,
2013-06-17 22:18:00,65.8,61.9,29.87,South,180,0.0,0.7,87,0.00,,,0.00,meteobridge,2013-06-18 02:18:00,
2013-06-17 22:23:00,65.7,61.7,29.87,South,180,0.0,0.0,87,0.00,,,0.00,meteobridge,2013-06-18 02:23:00,
2013-06-17 22:28:00,65.7,61.7,29.87,South,180,0.0,0.0,87,0.00,,,0.00,meteobridge,2013-06-18 02:28:00,
2013-06-17 22:33:00,65.5,61.5,29.87,South,180,0.0,0.0,87,0.00,,,0.00,meteobridge,2013-06-18 02:33:00,
2013-06-17 22:38:00,65.3,61.3,29.87,South,180,0.0,0.0,87,0.00,,,0.00,meteobridge,2013-06-18 02:38:00,
2013-06-17 22:43:00,65.3,61.7,29.86,South,180,0.0,0.0,88,0.00,,,0.00,meteobridge,2013-06-18 02:43:00,
2013-06-17 22:48:00,65.1,61.5,29.87,South,180,0.0,0.0,88,0.00,,,0.00,meteobridge,2013-06-18 02:48:00,
2013-06-17 22:54:00,64.8,61.2,29.86,South,180,0.0,0.0,88,0.00,,,0.00,meteobridge,2013-06-18 02:54:00,
2013-06-17 22:59:00,64.6,61.0,29.86,South,180,1.6,1.6,88,0.00,,,0.00,meteobridge,2013-06-18 02:59:00,
2013-06-17 23:04:00,64.4,60.8,29.86,South,180,0.7,0.7,88,0.00,,,0.00,meteobridge,2013-06-18 03:04:00,
2013-06-17 23:09:00,64.4,61.2,29.87,South,180,0.7,1.6,89,0.00,,,0.00,meteobridge,2013-06-18 03:09:00,
2013-06-17 23:14:00,64.2,61.0,29.87,South,180,0.0,0.0,89,0.00,,,0.00,meteobridge,2013-06-18 03:14:00,
2013-06-17 23:19:00,64.4,61.3,29.87,NW,315,0.0,0.0,90,0.00,,,0.00,meteobridge,2013-06-18 03:19:00,
2013-06-17 23:25:00,64.4,61.3,29.87,South,180,0.0,0.0,90,0.00,,,0.00,meteobridge,2013-06-18 03:25:00,
2013-06-17 23:30:00,64.4,61.3,29.87,South,180,0.0,0.0,90,0.00,,,0.00,meteobridge,2013-06-18 03:30:00,
2013-06-17 23:35:00,64.6,61.5,29.86,ENE,68,0.7,0.7,90,0.00,,,0.00,meteobridge,2013-06-18 03:35:00,
2013-06-17 23:40:00,64.6,61.5,29.87,North,0,0.7,0.7,90,0.00,,,0.00,meteobridge,2013-06-18 03:40:00,
2013-06-17 23:45:00,64.6,61.5,29.87,SE,135,0.0,0.7,90,0.00,,,0.00,meteobridge,2013-06-18 03:45:00,
2013-06-17 23:50:00,64.6,61.5,29.86,SE,135,0.0,0.0,90,0.00,,,0.00,meteobridge,2013-06-18 03:50:00,
2013-06-17 23:56:00,64.4,61.3,29.87,NE,45,0.0,0.0,90,0.00,,,0.00,meteobridge,2013-06-18 03:56:00,